C/2005 Q1 (LINEAR)

Epoch 2005 Aug. 18.0 TT = JDT 2453600.5  

T 2005 Aug. 25.52194 TT                                 Nakano

q   6.4084046            (2000.0)            P               Q

z  -0.0006988      Peri.   44.69098     +0.21229916     +0.15821940

 +/-0.0000024      Node    87.72747     +0.37505289     -0.92442408

e   1.0044783      Incl.  105.18830     +0.90236600     +0.34699676

From 152 observations 2005 Aug. 27-2007 Sept. 12, mean residual 0".65.

   (1/a)org.= +0.000012, (1/a)fut.= -0.000088 (+/-0.000002), Q= 8.

   The comet has passed 1.68 AU from Saturn on 2003 Aug. 25.0 UT.

Residuals in seconds of arc 

2005/                     050928 673  0.5+  0.8+    060108 561  0.7-  1.3+  

050827 704  0.2-  1.0+    050928 673  0.3+  0.8+    060108 561  0.1+  0.7+  

050827 704  0.6-  1.4-    051002 A32  0.2-  0.8-    060108 561  0.2-  0.0   

050827 704  0.6-  0.4+    051003 A32  0.5-  0.9-    060108 A32  1.7+  1.2+  

050827 704  0.7-  0.2-    051004 561  1.8+  0.8+    060108 A32  0.2-  0.4+  

050827 704  1.0-  0.5+    051004 561  1.2+  0.7-    060108 A32 (2.2-  0.0 ) 

050828 J87  0.1-  0.3-    051004 561  0.9-  1.6-    060118 704  0.0   0.8+  

050828 J87  0.1-  0.4-    051008 A32  0.2+  0.1-    060118 704  0.2+  0.9+  

050828 J87  0.2-  0.2-    051008 A32  0.4+  0.4-    060118 704  0.1+  0.3+  

050828 651  0.2-  0.0     051008 A32  0.7+  0.5-    060118 704  0.7-  0.8+  

050828 651  0.2-  0.1+    051008 A32  1.0+  0.0     060403 A32  0.1+  0.4+  

050828 651  0.4-  0.1+    051014 147  0.9-  0.1+    060514 A32  0.4+  0.2-  

050828 673  0.2+  0.2+    051014 147  0.3+  1.1+    060514 A32  0.7+  0.1+  

050828 673  0.2+  0.4+    051020 673  0.1+  1.1+    060531 561  0.6+  0.7+  

050828 673  0.2+  0.2+    051020 673  0.2+  1.3+    060531 561  0.3+  1.3+  

050828 673  0.1+  0.3+    051020 673  0.3+  1.5+    060531 561 (0.1-  2.5+) 

050829 213  0.2+  0.7+    051021 673  0.5-  0.7+    060603 130  1.0+  0.0   

050829 213  0.1+  0.3-    051021 673  0.0   1.2+    060603 130  0.8+  1.0-  

050829 213  0.1-  0.1-    051021 673  0.2+  1.3+    060624 561  0.2-  0.5+  

050829 704  0.2+  0.6+    051021 673  0.2+  1.3+    060624 561  0.0   0.3-  

050829 704  0.0   0.2+    051026 215 (4.0+  4.1-)   060624 561  0.2-  0.7+  

050829 704  1.4-  1.8-    051107 349  0.7+  1.8-    060725 215  0.7+  0.4-  

050829 673  0.1-  0.6+    051107 349  0.4+  1.9-    060725 215  0.2+  0.2-  

050829 673  0.3+  0.2+    051110 349  0.4-  0.6-    060731 147  1.0+  0.3-  

050829 673  0.2+  0.5+    051110 349  0.3-  0.0     060731 147  0.9+  0.4-  

050829 673  0.0   0.3+    051110 349  0.0   0.0     060731 147  0.4+  0.0   

050829 147  0.1-  0.7-    051112 673  0.0   0.7+    060902 118  0.6-  0.1-  

050829 147 (1.3-  3.4+)   051112 673  0.4-  0.8+    060902 118  0.3-  0.0   

050831 213  0.2-  0.0     051112 673  0.9-  1.0+    060902 118  0.3-  0.0   

050831 213  0.1-  0.0     051112 673  0.5-  0.0     060902 118  0.4-  0.2-  

050831 213  0.2-  0.2-    051119 A32  0.6-  0.8-    061001 118  0.4-  1.0-  

050831 704  0.6-  0.3-    051202 A32  0.4+  0.1-    061001 118  0.3+  0.1+  

050831 704  0.1-  0.4+    051202 A32  0.4+  0.0     061001 118  0.1+  0.5-  

050831 704  0.3+  0.4-    051202 A32  0.3+  0.1+    061001 118  0.5+  0.2-  

050831 704  0.1+  0.8+    051207 A32  0.1+  0.1+    061001 118  0.2+  0.5-  

050903 213  0.2+  0.3-    051207 A32  0.0   0.2+    061013 118  1.1-  0.1-  

050903 213  0.1+  0.2-    051207 A32  0.1+  0.0     061013 118  0.2-  0.0   

050903 213  0.2-  0.1-    051208 349  0.6+  0.7+    061013 118  0.7+  0.4+  

050903 J87  0.1-  0.7-    051208 349  0.9+  0.2+    061013 118  0.1-  0.6+  

050903 J87  0.0   0.5-    051208 349  0.9+  0.5+    061104 204  0.4+  0.1-  

050903 J87  0.1+  0.4-    051212 118  0.2+  0.3+    061111 J97  0.1-  0.8-  

050905 A32  0.5+  1.1-    051212 118  0.8+  0.5-    061130 204  0.1+  0.2-  

050906 A32  0.0   1.4-    051212 118  0.2+  0.3-    061130 204  0.6+  0.6-  

050919 118  0.0   0.2-    051212 118  0.3-  0.2-    2007/                   

050919 118  0.1+  0.8+    051225 349  1.3-  1.6-    070412 561 (6.4+  6.9+) 

050925 704  1.6-  1.7-    051225 349  1.2-  1.8-    070412 561 (6.8+  5.9+) 

050925 704  0.2-  0.1-    051225 349  1.1-  1.8-    070412 561 (6.3+  4.5+) 

050925 704  1.7-  1.8-    2006/                     070412 561  0.4+  0.0   

050925 704  0.5-  0.3-    060107 561  0.4-  0.7+    070412 561  0.5-  0.8+  

050926 704  0.3+  0.9-    060107 561  0.6-  0.1+    070412 561  0.4-  0.2+  

050926 704  0.8-  0.2-    060107 561  0.9-  0.5-    070907 204  0.7+  0.7-  

050926 704  0.6+  0.1+    060108 118  0.4-  0.5+    070912 204  0.4+  0.2+  

050926 704  0.0   0.3-    060108 118  0.5-  0.3+    071016 118 (3.1-  1.7-) 

050928 673  0.2+  1.1+    060108 118  0.2+  0.2+    071016 118 (0.9-  3.3-) 

050928 673  0.8+  0.7+    060108 561  0.2+  0.2-                            



NAKANO

         **** Don't distribute anyone except personal use only ****

                (C) Copyright 2008 OAA/ComputingSection

write mail from CFAD0::NAKANO on 2008-02-15 03:48:10(JST).





    C/2005 Q1 (LINEAR)

Epoch 2005 Aug. 18.0 TT = JDT 2453600.5  

T 2005 Aug. 25.52450 TT                                 Nakano

q   6.4084012            (2000.0)            P               Q

z  -0.0006974      Peri.   44.69120     +0.21229991     +0.15821802

 +/-0.0000028      Node    87.72745     +0.37504927     -0.92442559

e   1.0044693      Incl.  105.18829     +0.90236733     +0.34699336

From 145 observations 2005 Aug. 27-2006 Nov. 11, mean residual 0".65.

   (1/a)org.= +0.000013, (1/a)fut.= -0.000087 (+/-0.000003), Q= 7.

NAKANO

         **** Don't distribute anyone except personal use only ****

                (C) Copyright 2007 OAA/ComputingSection

write mail from CFAD0::NAKANO on 2007-03-05 06:22:02(JST).



    C/2005 Q1 (LINEAR)

Epoch 2005 Aug. 18.0 TT = JDT 2453600.5  

T 2005 Aug. 25.52450 TT                                 Nakano

q   6.4084012            (2000.0)            P               Q

z  -0.0006974      Peri.   44.69120     +0.21229991     +0.15821802

 +/-0.0000028      Node    87.72745     +0.37504927     -0.92442559

e   1.0044693      Incl.  105.18829     +0.90236733     +0.34699336

From 145 observations 2005 Aug. 27-2006 Nov. 11, mean residual 0".65.

   (1/a)org.= +0.000013, (1/a)fut.= -0.000087 (+/-0.000003), Q= 7.

NAKANO

         **** Don't distribute anyone except personal use only ****

                (C) Copyright 2007 OAA/ComputingSection

write mail from CFAD0::NAKANO on 2007-03-05 06:21:26(JST).

 



    C/2005 Q1 (LINEAR)

Epoch 2005 Aug. 18.0 TT = JDT 2453600.5  

T 2005 Aug. 25.49428 TT                                 Nakano

q   6.4083763            (2000.0)            P               Q

z  -0.0006989      Peri.   44.68839     +0.21229397     +0.15821145

 +/-0.0000067      Node    87.72669     +0.37509143     -0.92440968

e   1.0044789      Incl.  105.18765     +0.90235120     +0.34703873

From 114 observations 2005 Aug. 27-2006 May 31, mean residual 0".61.

   (1/a)org.= +0.000012, (1/a)fut.= -0.000088 (+/-0.000007), Q= 7.



NAKANO

         **** Don't distribute anyone except personal use only ****

                (C) Copyright 2006 OAA/ComputingSection

write mail from CFAD0::NAKANO on 2006-06-20 02:59:54(JST).



    C/2005 Q1 (LINEAR)

Epoch 2005 Aug. 18.0 TT = JDT 2453600.5  

T 2005 Aug. 25.40114 TT                                 Nakano

q   6.4081465            (2000.0)            P               Q

z  -0.0006446      Peri.   44.68028     +0.21227732     +0.15822379

 +/-0.0000238      Node    87.72574     +0.37521871     -0.92435938

e   1.0041306      Incl.  105.18716     +0.90230220     +0.34716707

From 91 observations 2005 Aug. 27-Dec. 12, mean residual 0".61.

   (1/a)org.= +0.000066, (1/a)fut.= -0.000034 (+/-0.000024), Q= 6.



NAKANO

         **** Don't distribute anyone except personal use only ****

                (C) Copyright 2006 OAA/ComputingSection

write mail from CFAD0::NAKANO on 2006-01-01 05:09:23(JST).

 



    C/2005 Q1 (LINEAR)

Epoch 2005 Aug. 18.0 TT = JDT 2453600.5  

T 2005 Aug. 25.46122 TT                                 Nakano

q   6.4081538            (2000.0)            P               Q

z  -0.0006418      Peri.   44.68552     +0.21229144     +0.15821094

 +/-0.0000340      Node    87.72602     +0.37513529     -0.92439278

e   1.0041130      Incl.  105.18742     +0.90233356     +0.34708398

From 84 observations 2005 Aug. 27-Dec. 2, mean residual 0".63.

   (1/a)org.= +0.000069, (1/a)fut.= -0.000031 (+/-0.000034), Q= 6.



NAKANO

         **** Don't distribute anyone except personal use only ****

                (C) Copyright 2005 OAA/ComputingSection

write mail from CFAD0::NAKANO on 2005-12-08 01:42:10(JST).

 

◎C/2005 Q1の軌道と予報位置です



  今になって,我が国での初観測が上尾の門田健一氏より報告がありました.

氏のCCD全光度は11月7日に18.5等でした.なお,光度パラメータは,HICQ 2006

用にグリーンによって求められたものです.

  HICQ 2006は,今日,SAOのPrint Shopに入れました.明日には,刷り上が

ります.HICQ 2006には,来年観測可能な彗星175個の軌道と予報位置が掲載

されています.どうぞ,購入してください.購入方法は,ICQのウェッブ・

ページにあります.



    C/2005 Q1 (LINEAR)

Epoch 2005 Aug. 18.0 TT = JDT 2453600.5  

T 2005 Aug. 25.40504 TT                                 Nakano

q   6.4080378            (2000.0)            P               Q

z  -0.0006048      Peri.   44.68075     +0.21228072     +0.15822860

 +/-0.0000776      Node    87.72592     +0.37521198     -0.92436172

e   1.0038755      Incl.  105.18752     +0.90230420     +0.34715865

From 75 observations 2005 Aug. 27-Nov. 7, mean residual 0".68.

   (1/a)org.= +0.000106, (1/a)fut.= +0.000006 (+/-0.000078), Q= 5.

 

Date/        TT  R.A.(2000) Decl.     Delta   r     Daily motion  Mag.  Moon Age

              h    h  m       。  ,                      ,  / PA 。  m1      。

2005 Nov.  5 14  03 47.05  +76 42.0   5.894  6.427    14.1 / 292  17.4  130  .14

           6 14  03 43.22  +76 47.1   5.890  6.427    14.2 / 290  17.4  127  .23

